Location: Newark
(44.9333°N, 0.5667°E)
Time: 03:57:52
(UTC+00:00)

UWE-3 - Pass Details

Date: 26 February 2020
Orbit: 585 x 683 km, 97.6° (Epoch: 04 April)

Event Time Altitude Azimuth Distance (km) Brightness Sun altitude
Rises 05:21:45 0° 14° (NNE) 3,046 ? -14.9°
Reaches altitude 10° 05:24:01 10° 16° (NNE) 2,132 ? -14.5°
Maximum altitude 05:28:41 73° 101° (E) 719 ? -13.7°
Drops below altitude 10° 05:33:20 10° 187° (S) 2,115 ? -12.9°
Sets 05:35:34 0° 189° (S) 3,020 ? -12.5°
